Flag for Germany Weather past 2 weeks in Euskirchen, North Rhine-Westphalia, Germany

Now
48 °F

Broken clouds.


Feels Like: 43 °F
Forecast: 31 / 54 °F
Wind: 14 mph from Southwest

Location: Noervenich

Current Time: Mar 27, 2015 at 12:56:00 PM

Latest Report: Mar 27, 2015 at 12:20 PM


Visibility: N/A

Pressure: 30.07 "Hg

Humidity: 62%

Dew point: 36 °F

Location of EuskirchenLocation

Historic Weather in Euskirchen — Graph

°F

Euskirchen temperature yesterday

Maximum temperature yesterday: 50 °F (at 1:20 PM)
Minimum temperature yesterday: 39 °F (at 5:20 AM)
Average temperature yesterday: 43 °F

Past Weeks' High & Low Weather Summary

 TemperatureHumidityPressure
High63 °F (Mar 17, 4:20 PM)100% (Mar 14, 7:20 PM)30.45 "Hg (Mar 14, 7:20 PM)
Low30 °F (Mar 16, 5:20 AM)40% (Mar 26, 1:20 PM)29.65 "Hg (Mar 25, 12:20 AM)
Average43 °F79%30.12 "Hg
* Reported Mar 12 11:20 AM — Mar 27 11:20 AM, Euskirchen, Weather by CustomWeather, © 2015

Note: Actual official high and low records may vary slightly from our data, if they occured in-between our weather recording intervals... More about our weather records

Advertising

Euskirchen weather history for previous 24 hours

 ConditionsComfort  
Time TempWeatherWind HumidityBarometerVisibility
11:20 AM
Fri, Mar 27
46 °FBroken clouds.14 mph71%30.04 "HgN/A
10:20 AM45 °FBroken clouds.13 mph76%30.04 "HgN/A
9:20 AM43 °FPartly sunny.14 mph81%30.01 "HgN/A
8:20 AM43 °FBroken clouds.13 mph76%29.98 "HgN/A
7:20 AM41 °FBroken clouds.12 mph81%29.95 "HgN/A
6:20 AM41 °FPassing clouds.10 mph81%29.92 "HgN/A
5:20 AM39 °FPassing clouds.10 mph87%29.92 "HgN/A
4:20 AM41 °FPassing clouds.10 mph81%29.89 "HgN/A
3:20 AM41 °FPassing clouds.9 mph81%29.86 "HgN/A
2:20 AM43 °FPassing clouds.9 mph81%29.86 "HgN/A
1:20 AM45 °FPassing clouds.12 mph81%29.83 "HgN/A
12:20 AM45 °FPassing clouds.12 mph87%29.80 "HgN/A
11:20 PM
Thu, Mar 26
45 °FPartly cloudy.12 mph87%29.77 "HgN/A
10:20 PM45 °FPassing clouds.12 mph81%29.77 "HgN/A
9:20 PM43 °FPassing clouds.5 mph81%29.74 "HgN/A
8:20 PM43 °FOvercast.3 mph81%29.74 "HgN/A
7:20 PM43 °FOvercast.5 mph76%29.74 "HgN/A
6:20 PM43 °FMore clouds than sun.6 mph76%29.74 "HgN/A
5:20 PM43 °FLight rain. More clouds than sun.6 mph71%29.74 "HgN/A
4:20 PM43 °FLight rain. Cloudy.6 mph71%29.74 "HgN/A
3:20 PM46 °FLight rain. Cloudy.8 mph40%29.74 "HgN/A
2:20 PM50 °FBroken clouds.6 mph43%29.74 "HgN/A
1:20 PM50 °FPartly sunny.6 mph40%29.74 "HgN/A
12:20 PM48 °FPartly sunny.2 mph50%29.77 "HgN/A
Weather by CustomWeather, © 2015

See weather overviewHow to use our weather pages